Weather Roundup
Issued by NWS Chicago, IL

Home | Current Version | Previous Version | Graphics & Text | Print | Product List | Glossary On
Versions: 1 2 3 4 5 6 7 8 9 10 11 12 13 14 15 16 17 18 19 20 21 22 23 24 25 26 27 28 29 30 31 32 33 34 35 36 37 38 39 40 41 42 43 44 45 46 47 48 49 50
000
NZUS59 KLOT 190106
HRRLOT

CHICAGO AREA WEATHER ROUNDUP
NATIONAL WEATHER SERVICE CHICAGO/ROMEOVILLE IL
800 PM CDT THU SEP 18 2014

NOTE: "FAIR" INDICATES FEW OR NO CLOUDS BELOW 12,000 FEET WITH NO
SIGNIFICANT WEATHER AND/OR OBSTRUCTIONS TO VISIBILITY.

* THESE STATIONS ARE NOT UNDER NWS QUALITY CONTROL. THEY ALSO MAY NOT
  REPORT WEATHER SUCH AS PRECIPITATION OR FOG.

ILZ005-006-012>014-019>023-190200-
NORTHEAST ILLINOIS

CITY           SKY/WX    TMP DP  RH WIND       PRES   REMARKS
OHARE          PTCLDY    60  53  77 N6        30.13R
MIDWAY         PTCLDY    62  55  77 N9        30.13R
AURORA         CLEAR     58  52  80 NE6       30.13R
LANSING*       CLEAR     59  56  87 CALM      30.13R
JOLIET*        CLEAR     60  52  75 NE6       30.13R
WAUKEGAN       PTCLDY    54  51  90 N5        30.14R
DUPAGE AIRPORT CLEAR     58  53  84 NE9       30.13R
WHEELING       CLEAR     58  53  84 N5        30.15R
KANKAKEE*      CLEAR     58  55  89 NE6       30.12R
MORRIS*        CLEAR     59  54  85 CALM      30.11R
LEWIS AIRPORT* CLEAR     59  53  79 NE8       30.12R
NORTHERLY IS     N/A     59  55  87 N8          N/A
$$

WIZ051-052-058>065-066-070>072-190200-
SOUTHEAST WISCONSIN

CITY           SKY/WX    TMP DP  RH WIND       PRES   REMARKS
MILWAUKEE      CLOUDY    56  51  84 N6        30.17R
KENOSHA*       CLOUDY    55  52  89 NE7       30.16R
RACINE*        CLOUDY    57  52  83 NE3       30.17R
BURLINGTON     CLOUDY    53  51  92 E6        30.16R
WAUKESHA       MOCLDY    52  48  87 E7        30.17R
WEST BEND      PTCLDY    50  46  87 CALM      30.17R
$$

INZ001>003-010>013-019-020-190200-
NORTHWEST INDIANA

CITY           SKY/WX    TMP DP  RH WIND       PRES   REMARKS
GARY*          PTCLDY    61  57  88 N7        30.13R
MICHIGAN CITY* NOT AVBL
RENSSELAER*    NOT AVBL
VALPARAISO     CLEAR     57  53  86 N3        30.13R
$$

LMZ740>746-190200-
SOUTHERN LAKE MICHIGAN

STATION/POSITION TIME  SKY/WX   TEMP WIND        PRES    VSBY
                                AIR  DIR/SP/G
                 (UTC)          (F)  (DEG/KT/KT) (MB)    (MI)
HARRISON CRIB    0100            60  360/ 11/ 13   N/A
BURNHAM HARBOR   0100            59  360/  7/ 10   N/A
CALUMET HARBOR   0100            60  360/  6/  8 1019.0R
BURNS HARBOR     NOT AVBL
MICHIGAN CITY    0100            63   20/ 11/ 13   N/A
$$

ABBREVIATIONS USED IN REMARKS
   TC - TEMPERATURE IN CELSIUS
  WCI - WIND CHILL INDEX
   HX - HEAT INDEX
  VSB - VISIBILITY
$$



USA.gov is the U.S. government's official web portal to all federal, state and local government web resources and services.